sat.trackr.live / text

‹ back to catalog

STARLINK-36391

NORAD 67591 · 2026-018C

PAYLOAD ACTIVE UNKNOWN

§ Identity

Operator
Country
US
Launch date
2026-01-29
Launch site
AFWTR
Launch vehicle
Mass (kg)
RCS (m²)

Purposes: comms

External: N2YO · Heavens-Above · Gunter

§ Orbital elements

Epoch: 2026-05-25T02:55:10.165152Z

Period
93.90 min
Inclination
97.2854°
Eccentricity
0.0001620
Mean motion
15.33465182 rev/d
Perigee alt
464.4 km
Apogee alt
466.6 km
Semi-major
6,843.6 km
B*
8.0194e-4
RAAN
210.1917°
Arg perigee
84.8801°
Mean anomaly
275.2627°
Rev number
1,904

§ Raw data

STARLINK-363911 67591U 26018C   26145.12164543  .00025920  00000+0  80194-3 0  99912 67591  97.2854 210.1917 0001620  84.8801 275.2627 15.33465182 19047

JSON: /api/v1/satellites/67591 · /tle

For live sub-satellite position, see the globe view (requires WebGL).

§ Visibility from observer

Set your observer location to see the next 7 days of passes ≥ 10°. The values pass through the URL so the page stays shareable.

No JS? Fill the form by hand. The geolocation button needs JavaScript.